AirNav   Pilot Hours Calculator
 
 277 users online  

AL34 Elam's Landing Airport
Moulton, Alabama, USA

GOING TO MOULTON?


FAA INFORMATION EFFECTIVE 23 MAY 2019

Location

FAA Identifier: AL34
Lat/Long: 34-26-49.3440N / 087-23-10.0780W
34-26.822400N / 087-23.167967W
34.4470400 / -87.3861328
(estimated)
Elevation: 685 ft. / 209 m (estimated)
Variation: 00E (1985)
From city: 4 miles SW of MOULTON, AL
Time zone: UTC -5 (UTC -6 during Standard Time)
Zip code: 35650

Airport Operations

Airport use: Private use. Permission required prior to landing
Activation date: 09/1980
Control tower: no
ARTCC: MEMPHIS CENTER
FSS: ANNISTON FLIGHT SERVICE STATION
Attendance: DAWN-DUSK
Wind indicator: yes
Segmented circle: no

Airport Communications

UNICOM: 122.8
WX AWOS-3P at 9A4 (13 nm N): 118.525 ((256) 637-0903)
WX AWOS-3PT at 1M4 (15 nm SW): 119.525 (205-486-0035)

Nearby radio navigation aids

VOR radial/distance  VOR name  Freq  Var
MSLr161/16.4MUSCLE SHOALS VORTAC116.5001E
DCUr242/25.2DECATUR VOR/DME112.8001W
HABr062/34.4HAMILTON VORTAC110.4002E

 
NDB name  Hdg/Dist  Freq  Var  ID
REDSTONE250/37.728704WHUA .... ..- .-

Airport Services

Airframe service: NONE
Powerplant service: NONE

Runway Information

Runway 9/27

Dimensions: 3500 x 50 ft. / 1067 x 15 m
Surface: turf
RUNWAY 9  RUNWAY 27
Traffic pattern: leftright

Airport Ownership and Management from official FAA records

Ownership: Privately-owned
Owner: JON ELAM
9595 COUNTY RD 434
TRINITY, AL 35673
Phone 256-394-7169
Manager: JON ELAM
9595 COUNTY RD 434
TRINITY, AL 35673
Phone 256-394-7169

Airport Operational Statistics

Aircraft based on the field: 3
Single engine airplanes: 2
Helicopters: 1
    

Additional Remarks

ULTRALIGHTS, HELICOPTERS AND AEROBATIC ACTIVITY INVOF ARPT.

Instrument Procedures

There are no published instrument procedures at AL34.

Some nearby airports with instrument procedures:

9A4 - Courtland Airport (13 nm N)
1M4 - Posey Field Airport (15 nm SW)
M22 - Bill Pugh Field Airport (16 nm W)
KMSL - Northwest Alabama Regional Airport (21 nm NW)
5M0 - Hartselle-Morgan County Regional Airport (23 nm E)
 
Loc | Ops | Rwys | IFR | FBO | Links
Com | Nav | Svcs | Stats | Notes
Area around AL34 (Elam's Landing Airport)
 
Road maps at: MapQuest Bing Google
 
Aerial photo
No photo
 
Sectional chart

 
Airport distance calculator
Flying to Elam's Landing Airport? Find the distance to fly.

From to AL34

Sunrise and sunset
Times for 16-Jun-2019
 Local
(UTC-5)
 Zulu
(UTC)
Morning civil twilight05:0810:08
Sunrise05:3810:38
Sunset20:0301:03
Evening civil twilight20:3201:32

Current date and time
Zulu (UTC)  16-Jun-2019 09:17:05
Local (UTC-5)  16-Jun-2019 04:17:05
 
METAR
K1M4 
15nm SW 
160856Z AUTO 20006KT 10SM BKN049 22/19 A3003 RMK AO2 SLP521 T02170189 53006
KMSL 
21nm NW 
160853Z AUTO 20006KT 10SM CLR 24/19 A2998 RMK AO2 SLP146 T02390189 53001
KDCU 
25nm NE 
160853Z AUTO 18007KT 10SM CLR 23/18 A2999 RMK AO2 SLP149 T02280178 55001
TAF
KMSL 
21nm NW 
160535Z 1606/1706 18008KT P6SM SKC FM161000 17007KT P6SM SCT025 FM161600 23011KT P6SM SCT040 FM170100 18007KT P6SM FEW050
NOTAMs
Click for the latest NOTAMs
NOTAMs are issued by the DoD/FAA and will open in a separate window not controlled by AirNav.

 

 
 

Would you like to see your business listed on this page?

 If your business provides an interesting product or service to pilots, flight crews, aircraft, or users of the Elam's Landing Airport, you should consider listing it here.  To start the listing process, click on the button below
 
Add a business
 

Other Pages about Elam's Landing Airport

Update a link
 
Copyright © AirNav, LLC. All rights reserved. Privacy Policy  Contact